Regional Weather Roundup
Issued by NWS

Home | Current Version | Previous Version | Text Only | Print | Product List | Glossary On
Versions: 1 2 3 4 5 6 7 8 9 10 11 12 13 14 15 16 17 18 19 20 21 22 23 24 25 26 27 28 29 30 31 32 33 34 35 36 37 38 39 40 41 42 43 44 45 46 47 48 49 50
000
ASUS43 KLSX 250507
RWRMO

WEATHER SUMMARY FOR MISSOURI
NATIONAL WEATHER SERVICE SPRINGFIELD MO
1200 AM CDT MON MAY 25 2015

NOTE: "FAIR" INDICATES FEW OR NO CLOUDS BELOW 12,000 FEET WITH NO
       SIGNIFICANT WEATHER AND/OR OBSTRUCTIONS TO VISIBILITY.
       CURRENT SKY AND/OR WEATHER CONDITIONS ARE NOT AVAILABLE FOR
       CHILLICOTHE AND FARMINGTON.

MOZ001>031-035>038-043-044-053-054-250600-
...NORTHERN AND WESTERN MISSOURI...

CITY           SKY/WX    TMP DP  RH WIND       PRES   REMARKS
KANSAS CTY INT CLOUDY    63  62  97 S6        29.83F
KANSAS C DTWN  CLOUDY    65  62  90 S3        29.82F
LEE`S SUMMIT   CLOUDY    64  62  93 SW7       29.84S
ST JOSEPH      CLOUDY    64  62  93 S5        29.82S
CHILLICOTHE      N/A     64  63  96 CALM      29.83F
KIRKSVILLE     LGT RAIN  64  64 100 CALM      29.82F FOG

$$
MOZ066>068-077>081-088>096-101>105-250600-
...SOUTHWEST MISSOURI...

CITY           SKY/WX    TMP DP  RH WIND       PRES   REMARKS
SPRINGFIELD    LGT RAIN  63  61  93 S10       29.89R
JOPLIN         CLOUDY    61  60  97 SW6       29.90S

$$
MOZ032>034-039>042-045>050-055>058-069>072-250600-
...CENTRAL MISSOURI...

CITY           SKY/WX    TMP DP  RH WIND       PRES   REMARKS
COLUMBIA       RAIN      65  64  97 CALM      29.82S FOG
JEFFERSON CITY LGT RAIN  66  65  96 W7        29.82R FOG
ROLLA          CLOUDY    67  64  90 S16G33    29.84S
SEDALIA        CLOUDY    65  63  93 SW6       29.84S
WHITEMAN AFB   CLOUDY    63  63 100 SW3       29.82S
WARRENSBURG    CLOUDY    63  63 100 SW5       29.83S
OSAGE BEACH    CLOUDY    64  63  94 S6        29.85S

$$
MOZ051-052-059>065-250600-
...EAST CENTRAL MISSOURI...

CITY           SKY/WX    TMP DP  RH WIND       PRES   REMARKS
ST LOUIS INTL  CLOUDY    70  64  81 S15       29.89S
SPIRIT OF STL  CLOUDY    69  66  90 VRB5      29.87R
ST CHARLES     CLOUDY    69  66  90 S15       29.87S

$$
MOZ072>076-082>087-097>100-106>115-250600-
...SOUTH CENTRAL AND SOUTHEAST MISSOURI...

CITY           SKY/WX    TMP DP  RH WIND       PRES   REMARKS
CAPE GIRARDEAU CLOUDY    67  66  97 SE13      29.97F
FARMINGTON     CLOUDY    66  64  94 S14G20    29.98R
POPLAR BLUFF   CLOUDY    69  65  86 S10       29.95S
WEST PLAINS    CLOUDY    67  64  90 SW9G18    29.94S

$$



USA.gov is the U.S. government's official web portal to all federal, state and local government web resources and services.